Tracking 20083 objects as of 9-Dec-2019
HD Live streaming from Space Station
objects crossing your sky now

PSLV R/B

Track PSLV R/B now!
10-day predictions


NORAD ID: 28050
Int'l Code: 2003-046B
Perigee: 807.1 km
Apogee: 879.9 km
Inclination: 98.8 °
Period: 101.6 minutes
Semi major axis: 7214 km
RCS: 6.3209 m2 (large)
Launch date: October 17, 2003
Source: India (IND)
Launch site: SRIHARIKOTA (SRI)

Note: This is a ROCKET BODY
aabbcc
Your satellite tracking list
Your tracking list is empty




NASA's NSSDC Master Catalog

Two Line Element Set (TLE):
1 28050U 03046B   19342.84717650 -.00000043 +00000-0 +41981-6 0  9992
2 28050 098.7623 281.2379 0050467 220.2455 200.2311 14.16756191834685
Source of the keplerian elements: AFSPC